{"data":{"norad_id":33434,"epoch":"2026-05-25T03:21:24.560640Z","epoch_age_seconds":62647,"freshness":"FRESH","line1":"1 33434U 08056B   26145.13986760 -.00000069  00000+0 -98315-5 0  9991","line2":"2 33434  98.6151 171.6358 0013663 203.7811 156.2741 14.30147208915327","mean_motion":14.30147208,"eccentricity":0.0013663,"inclination_deg":98.6151,"raan_deg":171.6358,"arg_perigee_deg":203.7811,"mean_anomaly_deg":156.2741,"bstar":-9.8315e-6,"rev_number":91532,"period_min":100.68893551271,"perigee_km":781.44329327929,"apogee_km":801.03432962166,"semimajor_km":7169.3758114505,"source":"CELESTRAK","updated_at":"2026-05-25T13:37:55.152904Z"}}